Погода в Бекилли

Турция     38°13′36″N   29°25′18″E
темп.,
°C
ветер,
м/с
пор.,
м/с
влажн.,
%
обл.,
%
осадки,
мм/ч
давл.,
гПа
погр.,
м
25 июня, сб
сб2500:00+16ссв35600 0.0 1013164
03:00+14с11700 0.0 101415
06:00+14ссв11720 0.0 101411
09:00+17ссз23570 0.0 1014861
12:00+21ссз45430 0.0 10131570
15:00+26сз78314 0.0 10112571
18:00+25с89303 0.0 10112486
21:00+20ссв33490 0.0 101256
26 июня, вс
вс2600:00+18вюв22570 0.0 101314
03:00+17в11621 0.0 101311
06:00+16вюв1165100 0.0 101311
09:00+20ссз234897 0.0 1013749
12:00+21сз6745100 0.0 10131380
15:00+23ссз7740100 0.0 10131167
18:00+24ссз353563 0.0 10112379
21:00+22св45411 0.0 1012190
27 июня, пн
пн2700:00+17св33620 0.0 101447
03:00+15всв11700 0.0 101413
06:00+14с117227 0.0 101411
09:00+18с244949 0.0 1014670
12:00+23ссв56360 0.0 10131891
15:00+26с452895 0.0 10112791
18:00+25ссв78338 0.0 10111919
21:00+20ссв465599 0.0 1013212
28 июня, вт
вт2800:00+19с115814 0.0 1013129
03:00+17ссз226535 0.0 101316
06:00+16сз22728 0.0 101337
09:00+18с34635 0.0 1013867
12:00+23с46412 0.0 10111895
15:00+27ссв562836 0.0 10092840
18:00+26ссв87325 0.0 10092225
21:00+22ссв59460 0.0 1011311
29 июня, ср
ср2900:00+19св33610 0.0 101258
03:00+17св22715 0.0 101218
06:00+16с22760 0.0 101228
09:00+19св34610 0.0 1012909
12:00+24св45370 0.0 10111829
15:00+25ссв753696 0.0 10102046
18:00+24св774199 0.0 10101297
21:00+20св46510 0.0 1011131